Year,Month,Day,Hour,Minute,Value (Times are PST for insolation in W/m^2)
2022,06,08,00,00,0.00
2022,06,08,00,01,0.00
2022,06,08,00,02,0.00
2022,06,08,00,03,0.00
2022,06,08,00,04,0.00
2022,06,08,00,05,0.00
2022,06,08,00,06,0.00
2022,06,08,00,07,0.00
2022,06,08,00,08,0.00
2022,06,08,00,09,0.00
2022,06,08,00,10,0.00
2022,06,08,00,11,0.00
2022,06,08,00,12,0.00
2022,06,08,00,13,0.00
2022,06,08,00,14,0.00
2022,06,08,00,15,0.00
2022,06,08,00,16,0.00
2022,06,08,00,17,0.00
2022,06,08,00,18,0.00
2022,06,08,00,19,0.00
2022,06,08,00,20,0.00
2022,06,08,00,21,0.00
2022,06,08,00,22,0.00
2022,06,08,00,23,0.00
2022,06,08,00,24,0.00
2022,06,08,00,25,0.00
2022,06,08,00,26,0.00
2022,06,08,00,27,0.00
2022,06,08,00,28,0.00
2022,06,08,00,29,0.00
2022,06,08,00,30,0.00
2022,06,08,00,31,0.00
2022,06,08,00,32,0.00
2022,06,08,00,33,0.00
2022,06,08,00,34,0.00
2022,06,08,00,35,0.00
2022,06,08,00,36,0.00
2022,06,08,00,37,0.00
2022,06,08,00,38,0.00
2022,06,08,00,39,0.00
2022,06,08,00,40,0.00
2022,06,08,00,41,0.00
2022,06,08,00,42,0.00
2022,06,08,00,43,0.00
2022,06,08,00,44,0.00
2022,06,08,00,45,0.00
2022,06,08,00,46,0.00
2022,06,08,00,47,0.00
2022,06,08,00,48,0.00
2022,06,08,00,49,0.00
2022,06,08,00,50,0.00
2022,06,08,00,51,0.00
2022,06,08,00,52,0.00
2022,06,08,00,53,0.00
2022,06,08,00,54,0.00
2022,06,08,00,55,0.00
2022,06,08,00,56,0.00
2022,06,08,00,57,0.00
2022,06,08,00,58,0.00
2022,06,08,00,59,0.00
2022,06,08,01,00,0.00
2022,06,08,01,01,0.00
2022,06,08,01,02,0.00
2022,06,08,01,03,0.00
2022,06,08,01,04,0.00
2022,06,08,01,05,0.00
2022,06,08,01,06,0.00
2022,06,08,01,07,0.00
2022,06,08,01,08,0.00
2022,06,08,01,09,0.00
2022,06,08,01,10,0.00
2022,06,08,01,11,0.00
2022,06,08,01,12,0.00
2022,06,08,01,13,0.00
2022,06,08,01,14,0.00
2022,06,08,01,15,0.00
2022,06,08,01,16,0.00
2022,06,08,01,17,0.00
2022,06,08,01,18,0.00
2022,06,08,01,19,0.00
2022,06,08,01,20,0.00
2022,06,08,01,21,0.00
2022,06,08,01,22,0.00
2022,06,08,01,23,0.00
2022,06,08,01,24,0.00
2022,06,08,01,25,0.00
2022,06,08,01,26,0.00
2022,06,08,01,27,0.00
2022,06,08,01,28,0.00
2022,06,08,01,29,0.00
2022,06,08,01,30,0.00
2022,06,08,01,31,0.00
2022,06,08,01,32,0.00
2022,06,08,01,33,0.00
2022,06,08,01,34,0.00
2022,06,08,01,35,0.00
2022,06,08,01,36,0.00
2022,06,08,01,37,0.00
2022,06,08,01,38,0.00
2022,06,08,01,39,0.00
2022,06,08,01,40,0.00
2022,06,08,01,41,0.00
2022,06,08,01,42,0.00
2022,06,08,01,43,0.00
2022,06,08,01,44,0.00
2022,06,08,01,45,0.00
2022,06,08,01,46,0.00
2022,06,08,01,47,0.00
2022,06,08,01,48,0.00
2022,06,08,01,49,0.00
2022,06,08,01,50,0.00
2022,06,08,01,51,0.00
2022,06,08,01,52,0.00
2022,06,08,01,53,0.00
2022,06,08,01,54,0.00
2022,06,08,01,55,0.00
2022,06,08,01,56,0.00
2022,06,08,01,57,0.00
2022,06,08,01,58,0.00
2022,06,08,01,59,0.00
2022,06,08,02,00,0.00
2022,06,08,02,01,0.00
2022,06,08,02,02,0.00
2022,06,08,02,03,0.00
2022,06,08,02,04,0.00
2022,06,08,02,05,0.00
2022,06,08,02,06,0.00
2022,06,08,02,07,0.00
2022,06,08,02,08,0.00
2022,06,08,02,09,0.00
2022,06,08,02,10,0.00
2022,06,08,02,11,0.00
2022,06,08,02,12,0.00
2022,06,08,02,13,0.00
2022,06,08,02,14,0.00
2022,06,08,02,15,0.00
2022,06,08,02,16,0.00
2022,06,08,02,17,0.00
2022,06,08,02,18,0.00
2022,06,08,02,19,0.00
2022,06,08,02,20,0.00
2022,06,08,02,21,0.00
2022,06,08,02,22,0.00
2022,06,08,02,23,0.00
2022,06,08,02,24,0.00
2022,06,08,02,25,0.00
2022,06,08,02,26,0.00
2022,06,08,02,27,0.00
2022,06,08,02,28,0.00
2022,06,08,02,29,0.00
2022,06,08,02,30,0.00
2022,06,08,02,31,0.00
2022,06,08,02,32,0.00
2022,06,08,02,33,0.00
2022,06,08,02,34,0.00
2022,06,08,02,35,0.00
2022,06,08,02,36,0.00
2022,06,08,02,37,0.00
2022,06,08,02,38,0.00
2022,06,08,02,39,0.00
2022,06,08,02,40,0.00
2022,06,08,02,41,0.00
2022,06,08,02,42,0.00
2022,06,08,02,43,0.00
2022,06,08,02,44,0.00
2022,06,08,02,45,0.00
2022,06,08,02,46,0.00
2022,06,08,02,47,0.00
2022,06,08,02,48,0.00
2022,06,08,02,49,0.00
2022,06,08,02,50,0.00
2022,06,08,02,51,0.00
2022,06,08,02,52,0.00
2022,06,08,02,53,0.00
2022,06,08,02,54,0.00
2022,06,08,02,55,0.00
2022,06,08,02,56,0.00
2022,06,08,02,57,0.00
2022,06,08,02,58,0.00
2022,06,08,02,59,0.00
2022,06,08,03,00,0.00
2022,06,08,03,01,0.00
2022,06,08,03,02,0.00
2022,06,08,03,03,0.00
2022,06,08,03,04,0.00
2022,06,08,03,05,0.00
2022,06,08,03,06,0.00
2022,06,08,03,07,0.00
2022,06,08,03,08,0.00
2022,06,08,03,09,0.00
2022,06,08,03,10,0.00
2022,06,08,03,11,0.00
2022,06,08,03,12,0.00
2022,06,08,03,13,0.00
2022,06,08,03,14,0.00
2022,06,08,03,15,0.00
2022,06,08,03,16,0.00
2022,06,08,03,17,0.00
2022,06,08,03,18,0.00
2022,06,08,03,19,0.00
2022,06,08,03,20,0.00
2022,06,08,03,21,0.00
2022,06,08,03,22,0.00
2022,06,08,03,23,0.00
2022,06,08,03,24,0.00
2022,06,08,03,25,0.00
2022,06,08,03,26,0.00
2022,06,08,03,27,0.00
2022,06,08,03,28,0.00
2022,06,08,03,29,0.00
2022,06,08,03,30,0.00
2022,06,08,03,31,0.00
2022,06,08,03,32,0.00
2022,06,08,03,33,0.00
2022,06,08,03,34,0.00
2022,06,08,03,35,0.00
2022,06,08,03,36,0.00
2022,06,08,03,37,0.00
2022,06,08,03,38,0.00
2022,06,08,03,39,0.00
2022,06,08,03,40,0.00
2022,06,08,03,41,0.00
2022,06,08,03,42,0.00
2022,06,08,03,43,0.00
2022,06,08,03,44,0.00
2022,06,08,03,45,0.00
2022,06,08,03,46,0.00
2022,06,08,03,47,0.00
2022,06,08,03,48,0.00
2022,06,08,03,49,0.00
2022,06,08,03,50,0.00
2022,06,08,03,51,0.00
2022,06,08,03,52,0.00
2022,06,08,03,53,0.00
2022,06,08,03,54,0.00
2022,06,08,03,55,0.00
2022,06,08,03,56,0.00
2022,06,08,03,57,0.00
2022,06,08,03,58,0.00
2022,06,08,03,59,0.00
2022,06,08,04,00,0.00
2022,06,08,04,01,0.00
2022,06,08,04,02,0.00
2022,06,08,04,03,0.00
2022,06,08,04,04,0.00
2022,06,08,04,05,0.00
2022,06,08,04,06,0.00
2022,06,08,04,07,0.00
2022,06,08,04,08,0.00
2022,06,08,04,09,0.00
2022,06,08,04,10,0.00
2022,06,08,04,11,0.00
2022,06,08,04,12,0.00
2022,06,08,04,13,0.00
2022,06,08,04,14,0.00
2022,06,08,04,15,0.00
2022,06,08,04,16,0.00
2022,06,08,04,17,0.00
2022,06,08,04,18,0.00
2022,06,08,04,19,0.00
2022,06,08,04,20,0.00
2022,06,08,04,21,0.00
2022,06,08,04,22,0.00
2022,06,08,04,23,0.00
2022,06,08,04,24,0.00
2022,06,08,04,25,0.00
2022,06,08,04,26,0.00
2022,06,08,04,27,0.00
2022,06,08,04,28,0.00
2022,06,08,04,29,0.00
2022,06,08,04,30,0.00
2022,06,08,04,31,0.00
2022,06,08,04,32,0.00
2022,06,08,04,33,0.00
2022,06,08,04,34,0.00
2022,06,08,04,35,0.00
2022,06,08,04,36,0.00
2022,06,08,04,37,0.00
2022,06,08,04,38,0.00
2022,06,08,04,39,0.00
2022,06,08,04,40,0.00
2022,06,08,04,41,0.00
2022,06,08,04,42,0.00
2022,06,08,04,43,0.00
2022,06,08,04,44,0.00
2022,06,08,04,45,0.00
2022,06,08,04,46,0.00
2022,06,08,04,47,0.00
2022,06,08,04,48,0.00
2022,06,08,04,49,0.00
2022,06,08,04,50,0.00
2022,06,08,04,51,0.00
2022,06,08,04,52,0.00
2022,06,08,04,53,0.00
2022,06,08,04,54,0.00
2022,06,08,04,55,0.00
2022,06,08,04,56,0.00
2022,06,08,04,57,0.00
2022,06,08,04,58,0.00
2022,06,08,04,59,0.00
2022,06,08,05,00,0.00
2022,06,08,05,01,0.00
2022,06,08,05,02,0.00
2022,06,08,05,03,0.00
2022,06,08,05,04,0.00
2022,06,08,05,05,0.00
2022,06,08,05,06,0.00
2022,06,08,05,07,0.00
2022,06,08,05,08,0.00
2022,06,08,05,09,0.00
2022,06,08,05,10,0.00
2022,06,08,05,11,0.00
2022,06,08,05,12,0.00
2022,06,08,05,13,0.00
2022,06,08,05,14,0.00
2022,06,08,05,15,0.00
2022,06,08,05,16,0.00
2022,06,08,05,17,0.90
2022,06,08,05,18,5.00
2022,06,08,05,19,5.00
2022,06,08,05,20,5.00
2022,06,08,05,21,5.00
2022,06,08,05,22,5.00
2022,06,08,05,23,5.10
2022,06,08,05,24,7.00
2022,06,08,05,25,7.00
2022,06,08,05,26,7.00
2022,06,08,05,27,8.10
2022,06,08,05,28,9.00
2022,06,08,05,29,9.00
2022,06,08,05,30,10.90
2022,06,08,05,31,11.00
2022,06,08,05,32,11.00
2022,06,08,05,33,11.40
2022,06,08,05,34,12.00
2022,06,08,05,35,12.00
2022,06,08,05,36,12.00
2022,06,08,05,37,13.90
2022,06,08,05,38,14.00
2022,06,08,05,39,14.60
2022,06,08,05,40,16.90
2022,06,08,05,41,18.60
2022,06,08,05,42,19.00
2022,06,08,05,43,20.60
2022,06,08,05,44,21.00
2022,06,08,05,45,21.00
2022,06,08,05,46,21.00
2022,06,08,05,47,21.90
2022,06,08,05,48,23.00
2022,06,08,05,49,23.00
2022,06,08,05,50,23.00
2022,06,08,05,51,24.90
2022,06,08,05,52,25.20
2022,06,08,05,53,26.00
2022,06,08,05,54,26.00
2022,06,08,05,55,26.00
2022,06,08,05,56,26.00
2022,06,08,05,57,26.00
2022,06,08,05,58,26.00
2022,06,08,05,59,26.40
2022,06,08,06,00,28.00
2022,06,08,06,01,28.00
2022,06,08,06,02,29.10
2022,06,08,06,03,30.00
2022,06,08,06,04,31.60
2022,06,08,06,05,32.10
2022,06,08,06,06,33.00
2022,06,08,06,07,33.00
2022,06,08,06,08,33.90
2022,06,08,06,09,35.00
2022,06,08,06,10,36.40
2022,06,08,06,11,37.00
2022,06,08,06,12,37.10
2022,06,08,06,13,39.20
2022,06,08,06,14,40.60
2022,06,08,06,15,43.60
2022,06,08,06,16,46.00
2022,06,08,06,17,46.70
2022,06,08,06,18,47.00
2022,06,08,06,19,48.90
2022,06,08,06,20,49.00
2022,06,08,06,21,49.00
2022,06,08,06,22,49.00
2022,06,08,06,23,47.90
2022,06,08,06,24,48.40
2022,06,08,06,25,49.00
2022,06,08,06,26,49.00
2022,06,08,06,27,49.00
2022,06,08,06,28,49.00
2022,06,08,06,29,49.90
2022,06,08,06,30,59.90
2022,06,08,06,31,77.90
2022,06,08,06,32,72.40
2022,06,08,06,33,48.70
2022,06,08,06,34,45.60
2022,06,08,06,35,44.00
2022,06,08,06,36,44.90
2022,06,08,06,37,47.70
2022,06,08,06,38,61.00
2022,06,08,06,39,107.10
2022,06,08,06,40,72.30
2022,06,08,06,41,149.80
2022,06,08,06,42,125.20
2022,06,08,06,43,165.00
2022,06,08,06,44,185.60
2022,06,08,06,45,183.90
2022,06,08,06,46,183.00
2022,06,08,06,47,205.30
2022,06,08,06,48,211.00
2022,06,08,06,49,220.00
2022,06,08,06,50,220.00
2022,06,08,06,51,220.00
2022,06,08,06,52,220.00
2022,06,08,06,53,204.30
2022,06,08,06,54,219.10
2022,06,08,06,55,201.50
2022,06,08,06,56,186.10
2022,06,08,06,57,246.50
2022,06,08,06,58,227.90
2022,06,08,06,59,220.00
2022,06,08,07,00,220.00
2022,06,08,07,01,265.60
2022,06,08,07,02,271.00
2022,06,08,07,03,271.00
2022,06,08,07,04,281.20
2022,06,08,07,05,296.80
2022,06,08,07,06,301.00
2022,06,08,07,07,306.90
2022,06,08,07,08,310.90
2022,06,08,07,09,314.60
2022,06,08,07,10,306.20
2022,06,08,07,11,275.90
2022,06,08,07,12,254.80
2022,06,08,07,13,231.30
2022,06,08,07,14,239.70
2022,06,08,07,15,250.80
2022,06,08,07,16,260.10
2022,06,08,07,17,244.50
2022,06,08,07,18,282.40
2022,06,08,07,19,288.70
2022,06,08,07,20,302.70
2022,06,08,07,21,323.10
2022,06,08,07,22,338.30
2022,06,08,07,23,343.00
2022,06,08,07,24,335.90
2022,06,08,07,25,328.20
2022,06,08,07,26,352.70
2022,06,08,07,27,362.80
2022,06,08,07,28,341.20
2022,06,08,07,29,338.90
2022,06,08,07,30,341.90
2022,06,08,07,31,349.90
2022,06,08,07,32,355.30
2022,06,08,07,33,356.40
2022,06,08,07,34,326.10
2022,06,08,07,35,345.20
2022,06,08,07,36,324.30
2022,06,08,07,37,325.00
2022,06,08,07,38,341.70
2022,06,08,07,39,345.90
2022,06,08,07,40,351.90
2022,06,08,07,41,361.00
2022,06,08,07,42,356.50
2022,06,08,07,43,342.60
2022,06,08,07,44,357.00
2022,06,08,07,45,364.40
2022,06,08,07,46,363.00
2022,06,08,07,47,344.70
2022,06,08,07,48,378.50
2022,06,08,07,49,318.70
2022,06,08,07,50,326.80
2022,06,08,07,51,293.80
2022,06,08,07,52,271.70
2022,06,08,07,53,278.10
2022,06,08,07,54,300.30
2022,06,08,07,55,332.70
2022,06,08,07,56,361.70
2022,06,08,07,57,376.20
2022,06,08,07,58,402.50
2022,06,08,07,59,404.10
2022,06,08,08,00,398.10
2022,06,08,08,01,411.90
2022,06,08,08,02,412.30
2022,06,08,08,03,387.10
2022,06,08,08,04,402.10
2022,06,08,08,05,401.40
2022,06,08,08,06,398.80
2022,06,08,08,07,378.40
2022,06,08,08,08,375.20
2022,06,08,08,09,392.70
2022,06,08,08,10,374.00
2022,06,08,08,11,399.30
2022,06,08,08,12,428.00
2022,06,08,08,13,442.20
2022,06,08,08,14,446.30
2022,06,08,08,15,445.20
2022,06,08,08,16,451.10
2022,06,08,08,17,466.40
2022,06,08,08,18,477.50
2022,06,08,08,19,480.00
2022,06,08,08,20,476.70
2022,06,08,08,21,470.70
2022,06,08,08,22,457.40
2022,06,08,08,23,449.80
2022,06,08,08,24,452.00
2022,06,08,08,25,442.90
2022,06,08,08,26,474.50
2022,06,08,08,27,468.40
2022,06,08,08,28,440.10
2022,06,08,08,29,484.90
2022,06,08,08,30,488.50
2022,06,08,08,31,496.40
2022,06,08,08,32,426.50
2022,06,08,08,33,470.20
2022,06,08,08,34,476.70
2022,06,08,08,35,469.00
2022,06,08,08,36,486.80
2022,06,08,08,37,492.90
2022,06,08,08,38,519.10
2022,06,08,08,39,499.40
2022,06,08,08,40,512.50
2022,06,08,08,41,500.00
2022,06,08,08,42,470.10
2022,06,08,08,43,420.10
2022,06,08,08,44,395.90
2022,06,08,08,45,327.70
2022,06,08,08,46,326.40
2022,06,08,08,47,526.00
2022,06,08,08,48,509.10
2022,06,08,08,49,439.00
2022,06,08,08,50,399.00
2022,06,08,08,51,399.00
2022,06,08,08,52,469.10
2022,06,08,08,53,462.90
2022,06,08,08,54,449.60
2022,06,08,08,55,485.70
2022,06,08,08,56,506.10
2022,06,08,08,57,552.40
2022,06,08,08,58,549.00
2022,06,08,08,59,546.60
2022,06,08,09,00,474.40
2022,06,08,09,01,409.40
2022,06,08,09,02,430.80
2022,06,08,09,03,480.80
2022,06,08,09,04,493.60
2022,06,08,09,05,506.00
2022,06,08,09,06,409.90
2022,06,08,09,07,467.40
2022,06,08,09,08,459.60
2022,06,08,09,09,478.80
2022,06,08,09,10,452.00
2022,06,08,09,11,418.30
2022,06,08,09,12,450.20
2022,06,08,09,13,474.10
2022,06,08,09,14,470.50
2022,06,08,09,15,394.10
2022,06,08,09,16,353.00
2022,06,08,09,17,339.60
2022,06,08,09,18,368.80
2022,06,08,09,19,425.00
2022,06,08,09,20,446.10
2022,06,08,09,21,442.90
2022,06,08,09,22,442.50
2022,06,08,09,23,488.30
2022,06,08,09,24,504.10
2022,06,08,09,25,483.40
2022,06,08,09,26,418.30
2022,06,08,09,27,395.10
2022,06,08,09,28,399.00
2022,06,08,09,29,407.30
2022,06,08,09,30,422.00
2022,06,08,09,31,438.30
2022,06,08,09,32,496.30
2022,06,08,09,33,523.20
2022,06,08,09,34,499.20
2022,06,08,09,35,517.80
2022,06,08,09,36,607.00
2022,06,08,09,37,643.50
2022,06,08,09,38,623.40
2022,06,08,09,39,616.40
2022,06,08,09,40,646.90
2022,06,08,09,41,583.60
2022,06,08,09,42,499.30
2022,06,08,09,43,463.70
2022,06,08,09,44,452.70
2022,06,08,09,45,458.10
2022,06,08,09,46,475.40
2022,06,08,09,47,528.10
2022,06,08,09,48,564.40
2022,06,08,09,49,553.30
2022,06,08,09,50,601.30
2022,06,08,09,51,618.20
2022,06,08,09,52,615.00
2022,06,08,09,53,588.80
2022,06,08,09,54,587.00
2022,06,08,09,55,587.00
2022,06,08,09,56,513.90
2022,06,08,09,57,534.10
2022,06,08,09,58,655.50
2022,06,08,09,59,615.40
2022,06,08,10,00,557.60
2022,06,08,10,01,555.00
2022,06,08,10,02,480.90
2022,06,08,10,03,464.00
2022,06,08,10,04,515.20
2022,06,08,10,05,746.90
2022,06,08,10,06,706.00
2022,06,08,10,07,643.30
2022,06,08,10,08,603.30
2022,06,08,10,09,591.00
2022,06,08,10,10,596.00
2022,06,08,10,11,646.60
2022,06,08,10,12,592.00
2022,06,08,10,13,592.00
2022,06,08,10,14,599.20
2022,06,08,10,15,639.70
2022,06,08,10,16,726.10
2022,06,08,10,17,743.40
2022,06,08,10,18,688.50
2022,06,08,10,19,617.10
2022,06,08,10,20,573.00
2022,06,08,10,21,626.90
2022,06,08,10,22,678.10
2022,06,08,10,23,682.00
2022,06,08,10,24,514.00
2022,06,08,10,25,478.20
2022,06,08,10,26,414.50
2022,06,08,10,27,431.00
2022,06,08,10,28,494.70
2022,06,08,10,29,530.00
2022,06,08,10,30,543.00
2022,06,08,10,31,496.20
2022,06,08,10,32,511.40
2022,06,08,10,33,536.90
2022,06,08,10,34,478.40
2022,06,08,10,35,487.30
2022,06,08,10,36,516.80
2022,06,08,10,37,494.70
2022,06,08,10,38,463.10
2022,06,08,10,39,463.10
2022,06,08,10,40,470.10
2022,06,08,10,41,470.10
2022,06,08,10,42,452.80
2022,06,08,10,43,459.70
2022,06,08,10,44,468.80
2022,06,08,10,45,456.90
2022,06,08,10,46,444.30
2022,06,08,10,47,449.40
2022,06,08,10,48,460.90
2022,06,08,10,49,480.20
2022,06,08,10,50,488.70
2022,06,08,10,51,537.60
2022,06,08,10,52,568.20
2022,06,08,10,53,552.20
2022,06,08,10,54,546.80
2022,06,08,10,55,563.00
2022,06,08,10,56,576.30
2022,06,08,10,57,608.30
2022,06,08,10,58,608.40
2022,06,08,10,59,617.30
2022,06,08,11,00,582.70
2022,06,08,11,01,550.90
2022,06,08,11,02,511.80
2022,06,08,11,03,490.60
2022,06,08,11,04,489.70
2022,06,08,11,05,509.10
2022,06,08,11,06,498.20
2022,06,08,11,07,508.70
2022,06,08,11,08,499.10
2022,06,08,11,09,487.00
2022,06,08,11,10,485.20
2022,06,08,11,11,477.70
2022,06,08,11,12,480.90
2022,06,08,11,13,463.10
2022,06,08,11,14,448.70
2022,06,08,11,15,446.30
2022,06,08,11,16,449.30
2022,06,08,11,17,448.00
2022,06,08,11,18,458.00
2022,06,08,11,19,456.30
2022,06,08,11,20,454.00
2022,06,08,11,21,439.20
2022,06,08,11,22,428.40
2022,06,08,11,23,422.10
2022,06,08,11,24,408.10
2022,06,08,11,25,396.70
2022,06,08,11,26,383.40
2022,06,08,11,27,374.40
2022,06,08,11,28,373.00
2022,06,08,11,29,372.40
2022,06,08,11,30,371.00
2022,06,08,11,31,368.80
2022,06,08,11,32,368.40
2022,06,08,11,33,372.30
2022,06,08,11,34,373.90
2022,06,08,11,35,371.90
2022,06,08,11,36,364.90
2022,06,08,11,37,358.70
2022,06,08,11,38,350.30
2022,06,08,11,39,339.00
2022,06,08,11,40,332.90
2022,06,08,11,41,330.10
2022,06,08,11,42,328.60
2022,06,08,11,43,325.70
2022,06,08,11,44,320.80
2022,06,08,11,45,316.30
2022,06,08,11,46,315.00
2022,06,08,11,47,313.40
2022,06,08,11,48,313.10
2022,06,08,11,49,315.20
2022,06,08,11,50,316.60
2022,06,08,11,51,320.00
2022,06,08,11,52,325.10
2022,06,08,11,53,328.30
2022,06,08,11,54,329.00
2022,06,08,11,55,327.30
2022,06,08,11,56,329.20
2022,06,08,11,57,331.80
2022,06,08,11,58,337.30
2022,06,08,11,59,340.10
2022,06,08,12,00,342.40
2022,06,08,12,01,344.60
2022,06,08,12,02,336.50
2022,06,08,12,03,331.70
2022,06,08,12,04,329.00
2022,06,08,12,05,325.00
2022,06,08,12,06,318.80
2022,06,08,12,07,316.00
2022,06,08,12,08,321.50
2022,06,08,12,09,333.90
2022,06,08,12,10,353.80
2022,06,08,12,11,366.90
2022,06,08,12,12,372.10
2022,06,08,12,13,364.60
2022,06,08,12,14,349.70
2022,06,08,12,15,343.40
2022,06,08,12,16,341.10
2022,06,08,12,17,341.40
2022,06,08,12,18,341.80
2022,06,08,12,19,338.60
2022,06,08,12,20,338.00
2022,06,08,12,21,340.00
2022,06,08,12,22,346.80
2022,06,08,12,23,358.40
2022,06,08,12,24,364.70
2022,06,08,12,25,355.90
2022,06,08,12,26,352.60
2022,06,08,12,27,354.70
2022,06,08,12,28,365.40
2022,06,08,12,29,370.60
2022,06,08,12,30,378.70
2022,06,08,12,31,371.40
2022,06,08,12,32,377.10
2022,06,08,12,33,398.10
2022,06,08,12,34,429.70
2022,06,08,12,35,467.70
2022,06,08,12,36,454.90
2022,06,08,12,37,475.30
2022,06,08,12,38,415.00
2022,06,08,12,39,400.70
2022,06,08,12,40,385.90
2022,06,08,12,41,388.00
2022,06,08,12,42,382.70
2022,06,08,12,43,374.90
2022,06,08,12,44,373.70
2022,06,08,12,45,390.90
2022,06,08,12,46,390.90
2022,06,08,12,47,374.90
2022,06,08,12,48,367.00
2022,06,08,12,49,368.90
2022,06,08,12,50,379.10
2022,06,08,12,51,395.10
2022,06,08,12,52,425.90
2022,06,08,12,53,447.10
2022,06,08,12,54,448.00
2022,06,08,12,55,441.60
2022,06,08,12,56,456.00
2022,06,08,12,57,426.40
2022,06,08,12,58,397.60
2022,06,08,12,59,399.00
2022,06,08,13,00,408.00
2022,06,08,13,01,416.60
2022,06,08,13,02,427.90
2022,06,08,13,03,455.00
2022,06,08,13,04,495.70
2022,06,08,13,05,547.60
2022,06,08,13,06,531.30
2022,06,08,13,07,541.90
2022,06,08,13,08,563.00
2022,06,08,13,09,494.10
2022,06,08,13,10,438.30
2022,06,08,13,11,440.40
2022,06,08,13,12,441.10
2022,06,08,13,13,440.80
2022,06,08,13,14,437.80
2022,06,08,13,15,460.10
2022,06,08,13,16,466.30
2022,06,08,13,17,453.30
2022,06,08,13,18,438.70
2022,06,08,13,19,433.50
2022,06,08,13,20,425.00
2022,06,08,13,21,421.80
2022,06,08,13,22,417.20
2022,06,08,13,23,418.90
2022,06,08,13,24,422.10
2022,06,08,13,25,426.40
2022,06,08,13,26,411.90
2022,06,08,13,27,407.60
2022,06,08,13,28,404.50
2022,06,08,13,29,401.90
2022,06,08,13,30,407.40
2022,06,08,13,31,413.70
2022,06,08,13,32,402.00
2022,06,08,13,33,392.20
2022,06,08,13,34,388.40
2022,06,08,13,35,392.70
2022,06,08,13,36,411.90
2022,06,08,13,37,438.40
2022,06,08,13,38,427.30
2022,06,08,13,39,428.20
2022,06,08,13,40,429.30
2022,06,08,13,41,434.70
2022,06,08,13,42,442.70
2022,06,08,13,43,454.00
2022,06,08,13,44,473.10
2022,06,08,13,45,500.40
2022,06,08,13,46,504.40
2022,06,08,13,47,550.80
2022,06,08,13,48,542.70
2022,06,08,13,49,516.00
2022,06,08,13,50,536.80
2022,06,08,13,51,593.40
2022,06,08,13,52,573.90
2022,06,08,13,53,552.00
2022,06,08,13,54,557.00
2022,06,08,13,55,542.80
2022,06,08,13,56,557.70
2022,06,08,13,57,570.00
2022,06,08,13,58,571.30
2022,06,08,13,59,582.70
2022,06,08,14,00,564.30
2022,06,08,14,01,551.20
2022,06,08,14,02,518.50
2022,06,08,14,03,513.90
2022,06,08,14,04,531.30
2022,06,08,14,05,549.10
2022,06,08,14,06,562.10
2022,06,08,14,07,561.90
2022,06,08,14,08,568.90
2022,06,08,14,09,564.00
2022,06,08,14,10,607.00
2022,06,08,14,11,616.30
2022,06,08,14,12,560.40
2022,06,08,14,13,533.00
2022,06,08,14,14,533.80
2022,06,08,14,15,497.90
2022,06,08,14,16,481.50
2022,06,08,14,17,502.90
2022,06,08,14,18,468.60
2022,06,08,14,19,478.60
2022,06,08,14,20,487.00
2022,06,08,14,21,594.60
2022,06,08,14,22,632.90
2022,06,08,14,23,638.90
2022,06,08,14,24,601.00
2022,06,08,14,25,571.10
2022,06,08,14,26,553.20
2022,06,08,14,27,541.00
2022,06,08,14,28,553.90
2022,06,08,14,29,569.80
2022,06,08,14,30,565.60
2022,06,08,14,31,557.40
2022,06,08,14,32,563.00
2022,06,08,14,33,558.00
2022,06,08,14,34,551.30
2022,06,08,14,35,567.10
2022,06,08,14,36,573.80
2022,06,08,14,37,603.40
2022,06,08,14,38,628.00
2022,06,08,14,39,626.40
2022,06,08,14,40,626.70
2022,06,08,14,41,630.30
2022,06,08,14,42,634.10
2022,06,08,14,43,669.50
2022,06,08,14,44,680.80
2022,06,08,14,45,647.40
2022,06,08,14,46,612.00
2022,06,08,14,47,607.90
2022,06,08,14,48,674.60
2022,06,08,14,49,693.80
2022,06,08,14,50,680.40
2022,06,08,14,51,618.80
2022,06,08,14,52,592.40
2022,06,08,14,53,588.10
2022,06,08,14,54,595.10
2022,06,08,14,55,606.70
2022,06,08,14,56,610.40
2022,06,08,14,57,616.30
2022,06,08,14,58,636.70
2022,06,08,14,59,631.00
2022,06,08,15,00,631.00
2022,06,08,15,01,620.40
2022,06,08,15,02,641.30
2022,06,08,15,03,618.30
2022,06,08,15,04,601.30
2022,06,08,15,05,426.30
2022,06,08,15,06,421.40
2022,06,08,15,07,421.80
2022,06,08,15,08,436.20
2022,06,08,15,09,456.70
2022,06,08,15,10,510.70
2022,06,08,15,11,519.20
2022,06,08,15,12,389.90
2022,06,08,15,13,369.50
2022,06,08,15,14,379.30
2022,06,08,15,15,383.70
2022,06,08,15,16,378.30
2022,06,08,15,17,380.20
2022,06,08,15,18,368.50
2022,06,08,15,19,374.00
2022,06,08,15,20,363.70
2022,06,08,15,21,358.00
2022,06,08,15,22,369.20
2022,06,08,15,23,361.10
2022,06,08,15,24,349.30
2022,06,08,15,25,332.40
2022,06,08,15,26,313.90
2022,06,08,15,27,304.00
2022,06,08,15,28,298.90
2022,06,08,15,29,293.70
2022,06,08,15,30,309.00
2022,06,08,15,31,325.00
2022,06,08,15,32,357.50
2022,06,08,15,33,388.10
2022,06,08,15,34,362.00
2022,06,08,15,35,350.00
2022,06,08,15,36,322.30
2022,06,08,15,37,317.70
2022,06,08,15,38,303.50
2022,06,08,15,39,302.40
2022,06,08,15,40,320.00
2022,06,08,15,41,317.90
2022,06,08,15,42,313.00
2022,06,08,15,43,318.60
2022,06,08,15,44,317.60
2022,06,08,15,45,320.70
2022,06,08,15,46,338.20
2022,06,08,15,47,357.90
2022,06,08,15,48,366.70
2022,06,08,15,49,386.60
2022,06,08,15,50,407.60
2022,06,08,15,51,410.30
2022,06,08,15,52,395.40
2022,06,08,15,53,398.20
2022,06,08,15,54,547.80
2022,06,08,15,55,513.50
2022,06,08,15,56,580.70
2022,06,08,15,57,612.20
2022,06,08,15,58,610.00
2022,06,08,15,59,598.60
2022,06,08,16,00,622.10
2022,06,08,16,01,687.50
2022,06,08,16,02,694.00
2022,06,08,16,03,685.40
2022,06,08,16,04,673.00
2022,06,08,16,05,673.00
2022,06,08,16,06,673.00
2022,06,08,16,07,611.30
2022,06,08,16,08,517.90
2022,06,08,16,09,471.90
2022,06,08,16,10,477.10
2022,06,08,16,11,497.70
2022,06,08,16,12,541.50
2022,06,08,16,13,589.90
2022,06,08,16,14,578.00
2022,06,08,16,15,589.60
2022,06,08,16,16,570.00
2022,06,08,16,17,570.00
2022,06,08,16,18,591.10
2022,06,08,16,19,606.00
2022,06,08,16,20,588.70
2022,06,08,16,21,610.30
2022,06,08,16,22,606.30
2022,06,08,16,23,551.90
2022,06,08,16,24,553.70
2022,06,08,16,25,547.80
2022,06,08,16,26,534.40
2022,06,08,16,27,557.10
2022,06,08,16,28,635.70
2022,06,08,16,29,626.10
2022,06,08,16,30,612.10
2022,06,08,16,31,586.40
2022,06,08,16,32,578.90
2022,06,08,16,33,588.70
2022,06,08,16,34,564.40
2022,06,08,16,35,554.30
2022,06,08,16,36,553.20
2022,06,08,16,37,561.10
2022,06,08,16,38,566.00
2022,06,08,16,39,562.20
2022,06,08,16,40,560.30
2022,06,08,16,41,559.40
2022,06,08,16,42,564.30
2022,06,08,16,43,573.00
2022,06,08,16,44,566.90
2022,06,08,16,45,544.70
2022,06,08,16,46,525.80
2022,06,08,16,47,496.20
2022,06,08,16,48,499.70
2022,06,08,16,49,510.40
2022,06,08,16,50,487.40
2022,06,08,16,51,484.90
2022,06,08,16,52,477.90
2022,06,08,16,53,480.90
2022,06,08,16,54,478.70
2022,06,08,16,55,485.00
2022,06,08,16,56,471.40
2022,06,08,16,57,462.50
2022,06,08,16,58,471.70
2022,06,08,16,59,480.10
2022,06,08,17,00,482.40
2022,06,08,17,01,477.10
2022,06,08,17,02,473.40
2022,06,08,17,03,479.00
2022,06,08,17,04,467.20
2022,06,08,17,05,471.50
2022,06,08,17,06,461.80